Regional Weather Roundup
Issued by NWS Sioux Falls, SD

Home | Current Version | Previous Version | Text Only | Print | Product List | Glossary On
Versions: 1 2 3 4 5 6 7 8 9 10 11 12 13 14 15 16 17 18 19 20 21 22 23 24 25 26 27 28 29 30 31 32 33 34 35 36 37 38 39 40 41 42 43 44 45 46 47 48 49 50
000
ASUS43 KFSD 250710
RWRFSD

WEATHER ROUNDUP FOR SE SOUTH DAKOTA/SW MINNESOTA/NW IOWA
NATIONAL WEATHER SERVICE SIOUX FALLS SD
200 AM CDT SUN JUN 25 2017

NOTE: "FAIR" INDICATES FEW OR NO CLOUDS BELOW 12,000 FEET WITH NO
SIGNIFICANT WEATHER AND OR OBSTRUCTIONS TO VISIBILITY.


SDZ038>040-050-052>070-250800-
SOUTHEAST SOUTH DAKOTA

CITY           SKY/WX    TMP DP  RH WIND       PRES   REMARKS
BROOKINGS      PTCLDY    50  45  83 NW7       30.21F
CHAMBERLAIN    CLEAR     45  42  88 SW5       30.30R
HURON          PTCLDY    45  43  93 NW6       30.26R
MADISON        FAIR      48  48 100 NW9       30.23S
MITCHELL       NOT AVBL
SIOUX FALLS    CLEAR     50  45  83 W7        30.22F
WINNER         FAIR      46  37  71 SW6       30.33R
YANKTON        CLEAR     51  42  71 W7        30.27R
$$

MNZ071-072-080-081-089-090-097-098-250800-
SOUTHWEST MINNESOTA

CITY           SKY/WX    TMP DP  RH WIND       PRES   REMARKS
FAIRMONT       CLEAR     53  45  74 NW9       30.16F
JACKSON        CLEAR     54  43  66 NW10      30.18S
LUVERNE        CLEAR     46  41  81 CALM      30.22S
MARSHALL       MOCLDY    55  46  71 NW14G21   30.18F
MONTEVIDEO     CLOUDY    54  45  71 N16G22    30.17S
PIPESTONE      MOCLDY    55  45  67 NW7       30.20S
REDWOOD FALLS  CLOUDY    55  43  63 NW12G21   30.15S
TRACY          MOCLDY    55  47  72 NW13      30.18F
WINDOM         CLEAR     54  45  71 W9        30.17S
WORTHINGTON    CLEAR     48  44  86 W8        30.20F
$$

IAZ001>003-012>014-020>022-031-032-NEZ013-014-SDZ071-250800-
NORTHWEST IOWA

CITY           SKY/WX    TMP DP  RH WIND       PRES   REMARKS
CHEROKEE       CLEAR     51  42  71 NW3       30.22S
DENISON        CLEAR     50  43  76 CALM      30.23S
ESTHERVILLE    CLEAR     48  46  93 W7        30.17S
LE MARS        PTCLDY    50  43  76 W3        30.24S
ORANGE CITY    PTCLDY    48  45  87 NW6       30.22S
SHELDON        PTCLDY    50  43  76 NW8       30.20S
SIOUX CITY     PTCLDY    53  42  66 W6        30.25R
SPENCER        CLEAR     47  43  86 NW9       30.19S
STORM LAKE     PTCLDY    50  43  76 W9        30.21S
$$

ABBREVIATIONS USED IN REMARKS
   TC - TEMPERATURE IN CELSIUS
  WCI - WIND CHILL INDEX
   HX - HEAT INDEX
  VSB - VISIBILITY




USA.gov is the U.S. government's official web portal to all federal, state and local government web resources and services.